SCP
0 0 0 0 0 0 0 0 0 0 0 0 0 0 0 0 0 0 0 0 0 0 0 0 0 0 0 0 0 0 0 0 0 0 0 0 0 0 0 0 0 0 0
0 0 0 0 0 0 0 0 0 0 0 0 0 0 0 0 0 0 0 0 0 0 0 0 0 0 0 0 0 0 0 0 0 0 0 0 0 0 0 0 0 0 0
0 0 0 0 0 0 0 0 0 0 0 0 0 0 0 0 0 0 0 0 0 0 0 0 0 0 0 0 0 0 0 0 0 0 0 0 0 0 0 0 0 0 0
0 0 0 0 0 0 0 0 0 0 0 0 0 0 0 0 0 0 0 0 0 0 0 0 0 0 0 0 0 0 0 0 0 0 0 0 0 0 0 0 0 0 0
0 0 0 0 0 0 0 0 0 0 0 0 0 0 0 0 0 0 0 0 0 0 0 0 0 0 0 0 0 0 0 0 0 0 0 0 0 0 0 0 0 0 0
0 0 0 0 0 0 0 0 0 0 0 0 0 0 0 0 0 0 0 0 0 0 0 0 0 0 0 0 0 0 0 0 0 -0 -0 0 0 0 0 0 0 0 -0
0 0 0 0 0 0 0 0 0 0 0 0 0 0 0 0 0 0 0 0 0 0 0 0 0 0 0 0 0 0 0 0 0 -0 -0 0 0 0 0 0 -0 -0 -0
0 0 0 0 0 0 0 0 0 0 0 0 0 0 0 0 0 0 0 0 0 0 0 0 0 0 0 0 0 0 0 0 0 0 0 0 0 0 0 0 0 0 0
0 0 0 0 0 0 0 0 0 0 0 0 0 0 0 0 0 0 0 0 0 0 0 0 0 0 0 0 0 0 0 0 0 0 0 0 0 0 0 0 0 0 0
0 0 0 0 0 0 0 0 0 0 0 0 0 0 0 0 0 0 0 0 0 0 0 0 0 0 0 -0 0 0 0 0 0 0 0 0 0 0 0 0 0 0 0
0 0 0 0 0 0 0 0 0 0 0 0 0 0 0 0 0 0 0 0 0 0 0 0 0 0 0 0 0 0 0 0 0 0 0 0 0 0 0 0 0 0 0
0 0 0 0 0 0 0 0 0 0 0 0 0 0 0 0 0 0 0 0 0 0 0 0 0 0 0 0 0 0 0 0 0 0 0 0 0 0 0 0 0 0 0
0 0 0 0 0 0 0 0 0 0 0 0 0 0 0 0 0 0 0 0 0 0 0 0 0 0 0 0 0 0 0 0 0 0 0 0 0 0 0 0 0 0 0
0 0 0 0 0 0 0 0 0 0 0 0 0 0 0 0 0 0 0 0 0 0 0 0 0 0 0 0 0 0 0 0 0 0 0 0 0 0 0 0 0 0 0
0 0 0 0 0 0 0 0 0 0 0 0 0 0 0 0 0 0 0 0 0 -0 0 0 0 0 0 0 0 0 0 0 0 0 0 0 0 0 -0 -0 -0 0 0
0 0 0 0 0 0 0 0 0 0 0 0 0 0 0 0 0 0 0 0 0 -0 0 0 0 0 0 0 0 0 0 0 0 0 0 0 0 -0 -0 -0 -0 0 0
0 0 0 0 0 0 0 0 0 0 0 0 0 0 0 0 0 0 0 0 0 -0 0 0 0 0 0 0 0 0 0 0 0 0 0 0 0 0 -0 -0 -0 0 0
0 0 0 0 0 0 0 0 0 0 0 0 0 0 0 -0 -0 -0 0 0 0 0 0 0 0 0 0 0 0 0 0 0 0 0 0 0 0 0 0 0 0 0 0
0 0 0 0 0 0 0 0 0 0 0 0 0 0 0 0 0 0 0 0 0 0 0 0 0 0 0 0 0 0 0 0 0 0 0 0 0 0 0 0 0 0 0
0 0 0 0 0 0 0 0 0 0 0 0 0 0 0 0 0 0 0 0 0 0 0 0 0 0 0 0 0 0 0 0 0 0 0 0 0 0 0 0 0 0 0
0 0 0 0 0 0 0 0 0 0 0 0 0 0 0 0 0 0 0 0 0 0 0 0 0 0 0 0 0 0 0 0 0 0 0 0 0 0 0 0 0 0 0
0 0 0 0 0 0 0 0 0 0 0 0 0 0 0 0 0 0 0 0 0 0 0 0 0 0 0 0 0 0 0 0 0 0 0 0 0 0 0 0 0 0 0
0 0 0 0 0 0 0 0 0 0 0 0 0 0 0 0 0 0 0 0 0 0 0 0 0 0 0 0 0 0 0 0 0 0 0 0 0 0 0 0 0 0 0
0 0 0 0 0 0 0 0 0 0 0 0 0 0 0 0 0 0 0 0 0 0 0 0 0 0 0 0 0 0 0 0 0 0 0 0 0 0 0 0 0 0 0
0 0 0 0 0 0 0 0 0 0 0 0 0 0 0 0 0 0 0 0 0 0 0 0 0 0 0 0 0 0 0 0 0 0 0 0 0 0 0 0 0 0 0
0 0 0 0 0 0 0 0 0 0 0 0 0 0 0 0 0 0 0 0 0 0 0 0 0 0 0 0 0 0 0 0 0 0 0 0 0 0 0 0 0 0 0
Wind_Speed
9 7 5 4 3 1 2 3 3 4 5 7 7 8 9 9 10 10 12 13 14 14 14 15 15 15 13 12 12 12 12 12 14 14 13 12 14 14 12 13 12 10 9
7 5 4 3 1 2 2 3 4 6 7 8 9 10 11 12 12 13 14 15 16 16 16 16 17 14 15 14 13 15 14 14 15 16 13 13 14 14 13 12 11 10 9
6 4 3 0 1 2 3 4 6 7 9 10 11 12 13 13 14 14 15 15 16 16 16 16 16 17 17 15 16 16 14 13 13 13 13 11 11 11 12 12 12 10 10
4 3 2 1 1 3 5 6 8 9 11 12 12 13 13 13 13 13 13 14 14 15 15 15 16 17 16 16 15 16 15 14 13 12 12 11 10 11 10 10 11 9 7
4 3 3 1 2 5 6 7 8 8 9 9 9 9 10 9 10 12 13 15 15 15 16 16 17 19 21 17 14 15 15 13 11 11 11 11 11 10 10 9 9 9 8
3 3 2 2 4 5 6 6 6 6 7 8 8 8 9 7 9 12 14 15 15 15 15 15 15 17 19 18 18 20 19 17 15 13 12 13 14 13 10 7 7 9 6
2 1 2 4 4 4 4 5 6 7 7 8 8 8 8 6 5 10 14 15 15 13 14 13 12 12 15 14 14 16 17 18 18 16 16 16 16 14 11 10 9 9 7
2 2 3 3 3 4 5 6 7 7 8 8 7 7 7 5 5 11 18 14 13 13 13 13 13 14 13 14 14 14 14 14 15 14 14 15 15 14 12 11 10 6 2
2 2 3 4 5 5 6 6 6 7 7 8 6 6 7 7 7 11 16 12 11 13 13 13 13 13 13 14 14 13 14 14 15 16 16 17 19 21 16 8 6 4 3
3 4 5 5 5 5 5 6 6 5 6 7 7 7 8 9 8 8 13 10 11 12 12 13 14 13 14 15 13 12 14 13 11 9 9 8 7 4 1 4 3 2 1
4 5 6 5 4 4 5 5 5 6 6 7 8 7 8 10 10 9 13 11 10 11 11 10 9 12 14 14 13 11 12 12 10 7 4 3 4 5 6 6 5 3 1
6 6 5 4 5 5 5 4 4 5 6 8 8 8 7 8 9 12 15 14 14 12 11 9 10 15 17 15 11 9 12 9 2 1 3 4 4 5 6 7 8 7 7
6 5 4 5 5 5 5 4 5 5 5 6 6 7 8 8 8 11 14 15 16 12 10 16 17 16 15 10 10 9 5 2 3 4 4 4 4 5 5 6 8 9 10
6 5 4 5 5 5 5 6 6 6 6 6 7 8 9 10 10 11 11 11 12 11 10 12 13 13 10 9 8 7 6 6 5 4 4 4 5 5 6 6 6 6 7
5 5 5 5 6 5 5 7 7 7 6 7 8 8 8 9 11 16 12 9 9 10 11 8 7 8 8 8 7 7 7 6 6 5 5 6 6 6 6 7 7 7 7
4 4 4 5 6 5 5 5 5 4 3 4 6 7 8 9 15 16 16 15 14 15 9 8 8 7 8 8 7 7 7 7 6 6 6 6 6 6 6 7 8 7 7
6 6 6 6 5 5 7 7 6 5 4 4 6 9 11 13 14 15 17 16 10 11 7 8 8 8 7 7 7 7 7 7 6 6 6 6 6 5 5 6 6 6 7
6 6 6 6 6 6 6 5 5 6 6 7 6 9 13 14 13 14 16 13 9 9 8 8 8 8 7 6 6 6 6 6 6 6 6 6 5 4 5 7 7 8 8
8 7 6 6 6 6 5 4 4 5 5 6 7 9 12 12 10 12 12 9 8 8 8 8 8 8 7 6 6 5 6 6 6 6 6 6 3 3 6 9 9 10 11
8 6 7 5 6 5 5 4 4 5 5 6 6 8 9 9 9 10 9 9 8 8 8 8 7 7 7 7 6 5 5 5 6 5 5 4 3 4 7 9 8 9 10
5 5 1 5 7 7 6 6 5 5 5 5 6 8 12 8 8 10 9 9 9 9 9 8 7 7 7 7 6 6 7 5 4 4 4 5 5 6 7 8 8 9 9
5 6 7 7 7 7 7 7 7 7 7 7 6 7 9 8 8 8 8 9 9 8 8 7 7 6 6 6 6 5 5 5 4 4 5 6 6 7 8 8 8 8 9
5 6 6 7 7 6 6 8 8 8 7 7 6 7 7 7 7 8 9 9 8 8 8 7 7 7 7 6 5 5 5 5 4 4 4 5 6 7 8 8 9 9 10
6 6 7 7 7 7 8 8 8 8 9 9 8 8 8 8 8 9 8 8 8 8 8 7 7 10 11 8 5 6 6 7 7 5 4 6 7 7 8 8 10 12 11
7 7 7 7 7 7 7 8 8 8 9 9 9 8 8 9 9 9 8 7 9 9 10 10 8 9 11 11 10 8 9 10 9 9 4 6 8 9 9 10 9 10 11
8 7 7 7 7 7 7 7 8 8 8 8 8 8 9 9 9 10 9 8 7 8 9 8 11 12 13 11 12 11 10 10 10 11 6 5 8 8 8 8 11 9 10
Wind_Direction
92 90 85 70 58 312 301 323 317 312 310 302 305 301 294 289 286 284 283 288 284 283 284 285 287 291 294 299 295 289 284 280 278 279 275 276 278 283 287 287 286 279 268
104 107 88 63 13 289 293 309 298 291 293 297 295 292 290 289 289 287 288 289 289 288 288 291 292 293 295 296 294 290 287 281 276 276 276 275 278 281 278 276 277 279 285
125 124 100 25 254 266 294 301 298 295 294 295 294 293 295 297 296 295 295 296 295 295 295 294 293 295 295 294 293 291 289 284 280 280 280 278 275 274 277 280 287 288 292
138 142 133 172 260 280 293 299 297 297 298 298 300 304 309 312 313 320 320 314 306 300 298 295 293 295 296 294 292 290 286 283 282 284 284 284 281 280 282 291 292 291 297
158 143 133 158 279 291 301 307 312 316 319 324 325 327 334 332 4 349 326 313 309 307 304 301 301 301 298 290 285 288 289 286 286 284 283 281 280 281 283 291 288 294 282
155 137 137 277 295 308 319 328 339 347 345 339 338 339 340 4 20 345 326 316 310 306 306 305 302 297 294 292 284 278 276 280 284 288 289 286 286 285 288 284 280 278 263
164 194 256 292 316 339 353 9 8 354 344 336 338 339 341 22 11 335 332 316 309 309 307 303 299 297 297 292 289 285 278 273 275 282 281 279 281 282 284 277 267 265 258
212 261 297 330 12 39 32 18 3 352 345 337 337 339 334 4 4 335 331 314 309 306 306 304 300 298 296 297 296 291 286 282 276 273 274 278 281 280 270 264 267 266 225
274 325 11 37 59 42 24 10 359 349 349 333 340 333 334 341 3 336 333 321 313 313 311 304 297 292 290 288 289 285 281 277 268 260 266 275 277 271 258 244 226 216 215
10 42 65 65 50 31 15 354 355 347 345 336 340 332 332 332 346 330 335 326 320 318 313 308 302 296 294 291 290 286 283 286 295 300 293 294 306 334 202 197 200 201 189
70 89 80 63 39 10 356 347 338 341 350 342 337 336 331 326 330 350 341 333 328 316 311 315 318 322 313 302 291 282 282 292 296 293 301 341 12 38 54 61 58 49 40
99 94 75 36 2 357 345 332 335 355 356 349 345 341 331 324 334 344 330 326 327 318 313 319 329 329 323 315 304 293 293 291 272 22 45 37 42 57 63 67 69 66 62
101 82 49 20 13 5 346 4 20 20 1 352 347 339 332 333 342 344 329 325 325 322 318 323 330 331 332 330 339 347 350 26 70 72 65 55 53 67 77 81 81 75 64
89 63 38 23 26 45 19 26 26 18 4 352 350 347 340 338 344 343 333 327 327 326 325 326 330 334 343 349 1 19 33 44 60 70 71 69 70 66 59 58 66 69 70
74 47 35 43 45 40 44 39 23 36 14 350 352 343 330 328 332 325 322 323 325 324 322 335 351 354 3 9 19 27 33 41 51 54 65 71 68 63 58 61 69 71 71
59 39 35 45 41 27 39 78 84 34 358 330 332 331 327 323 325 327 332 329 327 330 339 357 358 1 3 12 24 32 39 44 48 53 59 64 63 67 75 77 78 77 78
46 28 33 36 31 35 38 27 16 14 358 343 342 345 344 337 334 337 341 335 344 352 2 0 359 1 6 16 29 34 39 43 48 52 61 66 65 75 87 88 83 78 79
56 58 34 45 33 38 39 31 18 3 359 2 3 359 346 338 338 345 345 347 6 8 4 358 354 356 6 21 30 34 40 44 46 51 67 72 67 59 61 75 79 82 83
41 43 43 42 42 42 35 29 21 13 8 5 2 360 347 343 349 359 357 5 0 360 358 356 353 353 359 14 28 44 51 47 51 57 68 81 83 61 77 82 82 80 83
80 35 3 28 39 38 38 34 29 24 18 12 9 4 351 355 3 0 360 1 1 359 357 355 354 355 355 5 26 48 63 57 48 51 61 75 78 73 83 89 92 91 92
74 86 48 34 39 32 37 42 42 38 27 13 9 12 357 0 2 357 357 358 359 357 354 353 356 357 359 4 23 44 54 48 38 38 46 56 68 74 78 82 87 88 93
57 49 46 43 45 32 22 34 36 41 44 32 7 12 11 9 3 359 356 354 353 352 352 352 355 359 359 3 11 31 39 37 25 19 36 49 58 69 77 80 83 86 91
52 49 48 46 46 47 34 36 32 32 41 44 30 21 20 12 5 5 1 355 352 353 355 357 359 2 1 2 8 14 20 21 13 15 37 52 62 71 78 80 82 88 91
50 42 41 43 41 38 38 36 32 30 30 31 31 28 22 16 14 16 11 0 356 357 359 360 2 5 9 8 7 19 18 3 354 358 44 72 78 83 84 84 86 91 91
50 45 44 41 36 36 37 36 33 30 30 29 28 25 21 18 18 20 19 11 5 4 7 8 6 4 7 18 17 14 4 358 0 347 24 85 87 85 84 83 88 98 108
56 51 47 43 38 36 35 34 34 31 30 28 26 24 22 20 18 17 20 18 14 11 12 9 8 13 13 13 7 360 354 349 348 340 340 81 91 87 89 90 93 96 102